Вернуться в каталог

DELTA 1 DEB

АктивенSSO
NORAD 21297·DEBRIS·🇺🇸 United States

Запущен Jun 12, 1975 с Vandenberg Space Force Base

Loading…

Ближайшие Пролёты (ближайшие 24 часа)

TLE

СвежийSource: Space-Track

Эпоха: Sep 14, 2026, 09:48 UTC

1 21297U 75052AJ  26257.40840464  .00000043  00000-0  16751-3 0  9992
2 21297  99.6798  81.2669 0070914 110.7866   4.9476 13.33322070718081

Отслеживайте DELTA 1 DEB в реальном времени с AllMySat

Download on the App Store